| time (UTC) | temp F | wind direction | speed MPH | gust MPH | rain 1hr in | rain 24hr in | rain mn in | humidity % | barometer mb |
| 20260905010200 | 88 | 147 | 0.0 | 1.0 | 0.00 | 0.00 | 0.00 | 66 | 1012.6 |
| 20260905005700 | 88 | 360 | 0.0 | 0.0 | 0.00 | 0.00 | 0.00 | 64 | 1012.6 |
| 20260905005200 | 89 | 120 | 0.0 | 1.0 | 0.00 | 0.00 | 0.00 | 64 | 1012.5 |
| 20260905004700 | 89 | 360 | 0.0 | 0.0 | 0.00 | 0.00 | 0.00 | 63 | 1012.5 |
| 20260905004200 | 90 | 111 | 0.0 | 1.0 | 0.00 | 0.00 | 0.00 | 61 | 1012.5 |
| 20260905003701 | 90 | 101 | 0.0 | 3.0 | 0.00 | 0.00 | 0.00 | 60 | 1012.4 |
| 20260905003200 | 91 | 57 | 0.0 | 2.0 | 0.00 | 0.00 | 0.00 | 61 | 1012.5 |
| 20260905002700 | 91 | 59 | 2.0 | 2.0 | 0.00 | 0.00 | 0.00 | 59 | 1012.5 |
| 20260905002200 | 92 | 122 | 0.0 | 2.0 | 0.00 | 0.00 | 0.00 | 57 | 1012.4 |
| 20260905001700 | 92 | 125 | 0.0 | 1.0 | 0.00 | 0.00 | 0.00 | 57 | 1012.5 |
| 20260905001200 | 92 | 115 | 2.0 | 2.0 | 0.00 | 0.00 | 0.00 | 56 | 1012.4 |
| 20260905000701 | 92 | 107 | 1.0 | 3.0 | 0.00 | 0.00 | 0.00 | 55 | 1012.4 |
| 20260905000200 | 93 | 118 | 4.0 | 7.0 | 0.00 | 0.00 | 0.00 | 54 | 1012.4 |
| 20260904235700 | 93 | 117 | 4.0 | 5.0 | 0.00 | 0.00 | 0.00 | 54 | 1012.4 |
| 20260904235200 | 93 | 121 | 4.0 | 6.0 | 0.00 | 0.00 | 0.00 | 53 | 1012.3 |
| 20260904234700 | 93 | 118 | 3.0 | 4.0 | 0.00 | 0.00 | 0.00 | 53 | 1012.3 |
| 20260904234200 | 93 | 115 | 2.0 | 3.0 | 0.00 | 0.00 | 0.00 | 53 | 1012.3 |
| 20260904233700 | 94 | 123 | 3.0 | 5.0 | 0.00 | 0.00 | 0.00 | 53 | 1012.3 |
| 20260904233200 | 94 | 99 | 3.0 | 5.0 | 0.00 | 0.00 | 0.00 | 52 | 1012.2 |
| 20260904232700 | 94 | 115 | 4.0 | 6.0 | 0.00 | 0.00 | 0.00 | 51 | 1012.2 |
| 20260904232200 | 94 | 109 | 3.0 | 5.0 | 0.00 | 0.00 | 0.00 | 52 | 1012.2 |
| 20260904231700 | 94 | 110 | 5.0 | 8.0 | 0.00 | 0.00 | 0.00 | 51 | 1012.2 |
| 20260904231203 | 94 | 90 | 6.0 | 9.0 | 0.00 | 0.00 | 0.00 | 50 | 1012.0 |
| 20260904230700 | 94 | 94 | 3.0 | 4.0 | 0.00 | 0.00 | 0.00 | 49 | 1011.9 |
| 20260904230201 | 94 | 139 | 4.0 | 5.0 | 0.00 | 0.00 | 0.00 | 50 | 1011.8 |
| 20260904225700 | 94 | 106 | 3.0 | 4.0 | 0.00 | 0.00 | 0.00 | 51 | 1011.8 |
| 20260904225200 | 95 | 99 | 5.0 | 9.0 | 0.00 | 0.00 | 0.00 | 50 | 1011.8 |
| 20260904224702 | 95 | 212 | 3.0 | 4.0 | 0.00 | 0.00 | 0.00 | 49 | 1011.8 |
| 20260904224200 | 95 | 84 | 5.0 | 6.0 | 0.00 | 0.00 | 0.00 | 46 | 1011.8 |
| 20260904223700 | 95 | 150 | 3.0 | 6.0 | 0.00 | 0.00 | 0.00 | 51 | 1011.9 |
| 20260904223200 | 95 | 108 | 5.0 | 7.0 | 0.00 | 0.00 | 0.00 | 46 | 1011.9 |
| 20260904222700 | 95 | 160 | 3.0 | 4.0 | 0.00 | 0.00 | 0.00 | 46 | 1011.9 |
| 20260904222200 | 96 | 126 | 2.0 | 3.0 | 0.00 | 0.00 | 0.00 | 46 | 1011.9 |
| 20260904221700 | 96 | 119 | 4.0 | 5.0 | 0.00 | 0.00 | 0.00 | 45 | 1011.9 |
| 20260904221200 | 96 | 190 | 3.0 | 5.0 | 0.00 | 0.00 | 0.00 | 46 | 1011.8 |
| 20260904220700 | 96 | 197 | 3.0 | 5.0 | 0.00 | 0.00 | 0.00 | 45 | 1011.8 |
| 20260904220200 | 96 | 158 | 5.0 | 6.0 | 0.00 | 0.00 | 0.00 | 46 | 1011.8 |
| 20260904215701 | 95 | 168 | 5.0 | 6.0 | 0.00 | 0.00 | 0.00 | 46 | 1011.8 |
| 20260904215200 | 95 | 159 | 5.0 | 7.0 | 0.00 | 0.00 | 0.00 | 46 | 1011.9 |
| 20260904214700 | 95 | 160 | 4.0 | 8.0 | 0.00 | 0.00 | 0.00 | 46 | 1012.0 |
| 20260904214200 | 95 | 12 | 2.0 | 3.0 | 0.00 | 0.00 | 0.00 | 45 | 1012.0 |
| 20260904213702 | 96 | 118 | 1.0 | 3.0 | 0.00 | 0.00 | 0.00 | 44 | 1012.1 |
| 20260904213200 | 96 | 162 | 4.0 | 6.0 | 0.00 | 0.00 | 0.00 | 45 | 1012.1 |
| 20260904212700 | 95 | 212 | 4.0 | 6.0 | 0.00 | 0.00 | 0.00 | 45 | 1012.1 |
| 20260904212201 | 96 | 187 | 5.0 | 8.0 | 0.00 | 0.00 | 0.00 | 44 | 1012.1 |
| 20260904211701 | 95 | 211 | 4.0 | 9.0 | 0.00 | 0.00 | 0.00 | 45 | 1012.2 |
| 20260904211200 | 95 | 168 | 6.0 | 9.0 | 0.00 | 0.00 | 0.00 | 44 | 1012.3 |
| 20260904210701 | 95 | 166 | 6.0 | 8.0 | 0.00 | 0.00 | 0.00 | 44 | 1012.3 |
| 20260904210200 | 95 | 112 | 4.0 | 6.0 | 0.00 | 0.00 | 0.00 | 45 | 1012.3 |
| 20260904205700 | 95 | 239 | 1.0 | 4.0 | 0.00 | 0.00 | 0.00 | 44 | 1012.4 |
| 20260904205201 | 95 | 288 | 2.0 | 4.0 | 0.00 | 0.00 | 0.00 | 44 | 1012.5 |
| 20260904204704 | 95 | 155 | 5.0 | 9.0 | 0.00 | 0.00 | 0.00 | 45 | 1012.6 |
| 20260904204201 | 95 | 144 | 3.0 | 5.0 | 0.00 | 0.00 | 0.00 | 45 | 1012.7 |
| 20260904203700 | 95 | 110 | 3.0 | 4.0 | 0.00 | 0.00 | 0.00 | 44 | 1012.7 |
| 20260904203200 | 95 | 122 | 3.0 | 5.0 | 0.00 | 0.00 | 0.00 | 45 | 1012.8 |
| 20260904202700 | 94 | 141 | 6.0 | 9.0 | 0.00 | 0.00 | 0.00 | 46 | 1012.8 |
| 20260904202200 | 94 | 208 | 4.0 | 6.0 | 0.00 | 0.00 | 0.00 | 47 | 1012.8 |
| 20260904201701 | 94 | 235 | 3.0 | 5.0 | 0.00 | 0.00 | 0.00 | 46 | 1012.9 |
| 20260904201201 | 95 | 221 | 3.0 | 4.0 | 0.00 | 0.00 | 0.00 | 46 | 1012.9 |
| 20260904200700 | 94 | 179 | 3.0 | 9.0 | 0.00 | 0.00 | 0.00 | 49 | 1013.0 |
| 20260904200201 | 95 | 69 | 1.0 | 5.0 | 0.00 | 0.00 | 0.00 | 47 | 1013.1 |
| 20260904195701 | 94 | 214 | 3.0 | 4.0 | 0.00 | 0.00 | 0.00 | 49 | 1013.2 |
| 20260904195200 | 94 | 204 | 3.0 | 5.0 | 0.00 | 0.00 | 0.00 | 50 | 1013.3 |
| 20260904194700 | 94 | 148 | 3.0 | 6.0 | 0.00 | 0.00 | 0.00 | 49 | 1013.3 |
| 20260904194201 | 94 | 229 | 1.0 | 3.0 | 0.00 | 0.00 | 0.00 | 51 | 1013.4 |
| 20260904193700 | 93 | 210 | 1.0 | 3.0 | 0.00 | 0.00 | 0.00 | 51 | 1013.5 |
| 20260904193201 | 93 | 146 | 5.0 | 7.0 | 0.00 | 0.00 | 0.00 | 51 | 1013.6 |
| 20260904192701 | 93 | 279 | 1.0 | 2.0 | 0.00 | 0.00 | 0.00 | 53 | 1013.7 |
| 20260904192200 | 93 | 62 | 5.0 | 7.0 | 0.00 | 0.00 | 0.00 | 51 | 1013.7 |
| 20260904191700 | 93 | 192 | 5.0 | 9.0 | 0.00 | 0.00 | 0.00 | 52 | 1013.8 |
| 20260904191201 | 93 | 176 | 4.0 | 6.0 | 0.00 | 0.00 | 0.00 | 54 | 1013.9 |
| 20260904190701 | 93 | 183 | 1.0 | 4.0 | 0.00 | 0.00 | 0.00 | 55 | 1013.9 |
| 20260904190201 | 93 | 193 | 4.0 | 6.0 | 0.00 | 0.00 | 0.00 | 56 | 1014.0 |
| 20260904185700 | 92 | 142 | 5.0 | 8.0 | 0.00 | 0.00 | 0.00 | 56 | 1014.1 |
| 20260904185201 | 92 | 172 | 4.0 | 6.0 | 0.00 | 0.00 | 0.00 | 58 | 1014.1 |
| 20260904184700 | 92 | 326 | 2.0 | 4.0 | 0.00 | 0.00 | 0.00 | 56 | 1014.2 |
| 20260904184201 | 91 | 131 | 3.0 | 4.0 | 0.00 | 0.00 | 0.00 | 56 | 1014.3 |
| 20260904183700 | 91 | 108 | 3.0 | 6.0 | 0.00 | 0.00 | 0.00 | 57 | 1014.3 |
| 20260904183200 | 91 | 114 | 4.0 | 6.0 | 0.00 | 0.00 | 0.00 | 57 | 1014.4 |
| 20260904182700 | 90 | 159 | 1.0 | 3.0 | 0.00 | 0.00 | 0.00 | 58 | 1014.5 |
| 20260904182201 | 90 | 74 | 2.0 | 3.0 | 0.00 | 0.00 | 0.00 | 60 | 1014.5 |
| 20260904181700 | 90 | 105 | 2.0 | 3.0 | 0.00 | 0.00 | 0.00 | 61 | 1014.6 |
| 20260904181201 | 89 | 158 | 3.0 | 4.0 | 0.00 | 0.00 | 0.00 | 62 | 1014.6 |
| 20260904180701 | 89 | 89 | 2.0 | 3.0 | 0.00 | 0.00 | 0.00 | 62 | 1014.7 |
| 20260904180200 | 89 | 96 | 6.0 | 8.0 | 0.00 | 0.00 | 0.00 | 62 | 1014.8 |
| 20260904175700 | 89 | 84 | 4.0 | 5.0 | 0.00 | 0.00 | 0.00 | 63 | 1014.8 |
| 20260904175200 | 89 | 95 | 3.0 | 4.0 | 0.00 | 0.00 | 0.00 | 63 | 1014.9 |
| 20260904174700 | 90 | 68 | 2.0 | 4.0 | 0.00 | 0.00 | 0.00 | 62 | 1014.9 |
| 20260904174201 | 90 | 237 | 1.0 | 3.0 | 0.00 | 0.00 | 0.00 | 62 | 1015.0 |
| 20260904173700 | 90 | 314 | 2.0 | 3.0 | 0.00 | 0.00 | 0.00 | 62 | 1015.0 |
| 20260904173201 | 89 | 64 | 2.0 | 4.0 | 0.00 | 0.00 | 0.00 | 62 | 1015.1 |
| 20260904172702 | 90 | 84 | 5.0 | 6.0 | 0.00 | 0.00 | 0.00 | 63 | 1015.2 |
| 20260904172201 | 90 | 90 | 6.0 | 9.0 | 0.00 | 0.00 | 0.00 | 61 | 1015.3 |
| 20260904171701 | 90 | 106 | 4.0 | 8.0 | 0.00 | 0.00 | 0.00 | 62 | 1015.4 |
| 20260904171201 | 89 | 323 | 0.0 | 1.0 | 0.00 | 0.00 | 0.00 | 61 | 1015.4 |
| 20260904170700 | 89 | 296 | 2.0 | 3.0 | 0.00 | 0.00 | 0.00 | 62 | 1015.5 |
| 20260904170201 | 89 | 283 | 4.0 | 6.0 | 0.00 | 0.00 | 0.00 | 62 | 1015.6 |
| 20260904165700 | 89 | 287 | 3.0 | 4.0 | 0.00 | 0.00 | 0.00 | 61 | 1015.7 |
| 20260904165200 | 89 | 263 | 3.0 | 6.0 | 0.00 | 0.00 | 0.00 | 63 | 1015.8 |
| 20260904164702 | 89 | 301 | 2.0 | 4.0 | 0.00 | 0.00 | 0.00 | 62 | 1015.8 |
| 20260904164200 | 89 | 354 | 3.0 | 4.0 | 0.00 | 0.00 | 0.00 | 63 | 1015.8 |
| 20260904163701 | 89 | 279 | 2.0 | 4.0 | 0.00 | 0.00 | 0.00 | 63 | 1015.8 |
| 20260904163200 | 88 | 32 | 3.0 | 3.0 | 0.00 | 0.00 | 0.00 | 63 | 1015.9 |
| 20260904162700 | 88 | 354 | 0.0 | 1.0 | 0.00 | 0.00 | 0.00 | 64 | 1015.9 |
| 20260904162200 | 87 | 138 | 1.0 | 2.0 | 0.00 | 0.00 | 0.00 | 67 | 1015.9 |
| 20260904161701 | 87 | 114 | 3.0 | 4.0 | 0.00 | 0.00 | 0.00 | 67 | 1015.9 |
| 20260904161201 | 87 | 97 | 2.0 | 3.0 | 0.00 | 0.00 | 0.00 | 67 | 1015.8 |
| 20260904160701 | 87 | 120 | 2.0 | 4.0 | 0.00 | 0.00 | 0.00 | 69 | 1015.8 |
| 20260904160201 | 87 | 141 | 2.0 | 4.0 | 0.00 | 0.00 | 0.00 | 70 | 1015.9 |
| 20260904155700 | 87 | 107 | 5.0 | 7.0 | 0.00 | 0.00 | 0.00 | 69 | 1015.9 |
| 20260904155201 | 87 | 271 | 3.0 | 5.0 | 0.00 | 0.00 | 0.00 | 68 | 1015.9 |
| 20260904154700 | 87 | 246 | 2.0 | 4.0 | 0.00 | 0.00 | 0.00 | 69 | 1016.0 |
| 20260904154200 | 86 | 212 | 3.0 | 5.0 | 0.00 | 0.00 | 0.00 | 70 | 1016.0 |
| 20260904153700 | 86 | 240 | 3.0 | 4.0 | 0.00 | 0.00 | 0.00 | 74 | 1015.9 |
| 20260904153200 | 87 | 197 | 2.0 | 5.0 | 0.00 | 0.00 | 0.00 | 74 | 1015.8 |
| 20260904152700 | 86 | 219 | 0.0 | 0.0 | 0.00 | 0.00 | 0.00 | 74 | 1015.9 |
| 20260904152200 | 86 | 181 | 1.0 | 2.0 | 0.00 | 0.00 | 0.00 | 75 | 1015.8 |
| 20260904151700 | 86 | 147 | 1.0 | 2.0 | 0.00 | 0.00 | 0.00 | 76 | 1015.8 |
| 20260904151200 | 85 | 116 | 0.0 | 1.0 | 0.00 | 0.00 | 0.00 | 78 | 1015.8 |
| 20260904150700 | 84 | 290 | 1.0 | 2.0 | 0.00 | 0.00 | 0.00 | 78 | 1015.7 |
| 20260904150200 | 84 | 157 | 2.0 | 4.0 | 0.00 | 0.00 | 0.00 | 80 | 1015.7 |
| 20260904145701 | 84 | 171 | 3.0 | 4.0 | 0.00 | 0.00 | 0.00 | 80 | 1015.7 |
| 20260904145201 | 83 | 26 | 1.0 | 2.0 | 0.00 | 0.00 | 0.00 | 81 | 1015.7 |
| 20260904144704 | 83 | 215 | 1.0 | 3.0 | 0.00 | 0.00 | 0.00 | 82 | 1015.7 |
| 20260904144201 | 83 | 218 | 1.0 | 3.0 | 0.00 | 0.00 | 0.00 | 84 | 1015.8 |
| 20260904143700 | 83 | 195 | 2.0 | 3.0 | 0.00 | 0.00 | 0.00 | 83 | 1015.8 |
| 20260904143200 | 83 | 174 | 1.0 | 3.0 | 0.00 | 0.00 | 0.00 | 82 | 1015.8 |
| 20260904142700 | 83 | 160 | 0.0 | 2.0 | 0.00 | 0.00 | 0.00 | 83 | 1015.7 |
| 20260904142201 | 83 | 115 | 1.0 | 2.0 | 0.00 | 0.00 | 0.00 | 83 | 1015.7 |
| 20260904141700 | 82 | 109 | 0.0 | 2.0 | 0.00 | 0.00 | 0.00 | 84 | 1015.7 |
| 20260904141203 | 82 | 146 | 2.0 | 3.0 | 0.00 | 0.00 | 0.00 | 85 | 1015.6 |
| 20260904140701 | 81 | 173 | 3.0 | 5.0 | 0.00 | 0.00 | 0.00 | 86 | 1015.6 |
| 20260904140200 | 81 | 178 | 3.0 | 5.0 | 0.00 | 0.00 | 0.00 | 86 | 1015.6 |
| 20260904135700 | 81 | 162 | 3.0 | 5.0 | 0.00 | 0.00 | 0.00 | 86 | 1015.6 |
| 20260904135200 | 81 | 113 | 2.0 | 3.0 | 0.00 | 0.00 | 0.00 | 87 | 1015.6 |
| 20260904134702 | 80 | 102 | 2.0 | 4.0 | 0.00 | 0.00 | 0.00 | 87 | 1015.5 |
| 20260904134200 | 80 | 107 | 2.0 | 2.0 | 0.00 | 0.00 | 0.00 | 89 | 1015.5 |
| 20260904133700 | 80 | 114 | 2.0 | 2.0 | 0.00 | 0.00 | 0.00 | 91 | 1015.5 |
| 20260904133202 | 79 | 114 | 2.0 | 2.0 | 0.00 | 0.00 | 0.00 | 92 | 1015.4 |
| 20260904132700 | 78 | 109 | 2.0 | 3.0 | 0.00 | 0.00 | 0.00 | 94 | 1015.3 |
| 20260904132200 | 78 | 58 | 2.0 | 2.0 | 0.00 | 0.00 | 0.00 | 94 | 1015.3 |
| 20260904131700 | 77 | 127 | 1.0 | 2.0 | 0.00 | 0.00 | 0.00 | 95 | 1015.2 |
| 20260904131200 | 77 | 18 | 0.0 | 1.0 | 0.00 | 0.00 | 0.00 | 95 | 1015.2 |
| 20260904130701 | 76 | 93 | 1.0 | 2.0 | 0.00 | 0.00 | 0.00 | 95 | 1015.2 |
| 20260904130202 | 75 | 100 | 2.0 | 2.0 | 0.00 | 0.00 | 0.00 | 95 | 1015.1 |
| 20260904125700 | 75 | 144 | 1.0 | 3.0 | 0.00 | 0.00 | 0.00 | 95 | 1015.0 |
| 20260904125200 | 74 | 170 | 1.0 | 1.0 | 0.00 | 0.00 | 0.00 | 95 | 1014.9 |
| 20260904124700 | 74 | 129 | 1.0 | 2.0 | 0.00 | 0.00 | 0.00 | 95 | 1014.8 |
| 20260904124200 | 74 | 72 | 1.0 | 2.0 | 0.00 | 0.00 | 0.00 | 95 | 1014.8 |
| 20260904123700 | 73 | 110 | 1.0 | 2.0 | 0.00 | 0.00 | 0.00 | 95 | 1014.7 |
| 20260904123201 | 73 | 21 | 0.0 | 1.0 | 0.00 | 0.00 | 0.00 | 95 | 1014.7 |
| 20260904122700 | 73 | 78 | 1.0 | 1.0 | 0.00 | 0.00 | 0.00 | 95 | 1014.6 |
| 20260904122200 | 73 | 124 | 1.0 | 2.0 | 0.00 | 0.00 | 0.00 | 95 | 1014.6 |
| 20260904121700 | 72 | 109 | 1.0 | 2.0 | 0.00 | 0.00 | 0.00 | 95 | 1014.5 |
| 20260904121200 | 72 | 105 | 1.0 | 1.0 | 0.00 | 0.00 | 0.00 | 95 | 1014.4 |
| 20260904120701 | 72 | 104 | 1.0 | 1.0 | 0.00 | 0.00 | 0.00 | 95 | 1014.4 |
| 20260904120200 | 72 | 154 | 0.0 | 1.0 | 0.00 | 0.00 | 0.00 | 95 | 1014.3 |
| 20260904115700 | 72 | 245 | 1.0 | 2.0 | 0.00 | 0.00 | 0.00 | 95 | 1014.3 |
| 20260904115201 | 72 | 190 | 1.0 | 1.0 | 0.00 | 0.00 | 0.00 | 95 | 1014.3 |
| 20260904114700 | 72 | 108 | 1.0 | 1.0 | 0.00 | 0.00 | 0.00 | 95 | 1014.3 |
| 20260904114200 | 72 | 110 | 1.0 | 2.0 | 0.00 | 0.00 | 0.00 | 95 | 1014.2 |
| 20260904113700 | 72 | 118 | 1.0 | 1.0 | 0.00 | 0.00 | 0.00 | 95 | 1014.2 |
| 20260904113200 | 73 | 152 | 1.0 | 1.0 | 0.00 | 0.00 | 0.00 | 95 | 1014.2 |
| 20260904112700 | 73 | 360 | 0.0 | 0.0 | 0.00 | 0.00 | 0.00 | 95 | 1014.2 |
| 20260904112200 | 72 | 114 | 1.0 | 2.0 | 0.00 | 0.00 | 0.00 | 95 | 1014.2 |
| 20260904111700 | 73 | 100 | 1.0 | 2.0 | 0.00 | 0.00 | 0.00 | 95 | 1014.1 |
| 20260904111201 | 73 | 109 | 1.0 | 2.0 | 0.00 | 0.00 | 0.00 | 95 | 1014.1 |
| 20260904110702 | 73 | 128 | 1.0 | 2.0 | 0.00 | 0.00 | 0.00 | 95 | 1014.1 |
| 20260904110200 | 73 | 107 | 1.0 | 1.0 | 0.00 | 0.00 | 0.00 | 95 | 1014.1 |
| 20260904105700 | 73 | 104 | 0.0 | 1.0 | 0.00 | 0.00 | 0.00 | 95 | 1014.0 |
| 20260904105204 | 73 | 106 | 1.0 | 1.0 | 0.00 | 0.00 | 0.00 | 95 | 1014.1 |
| 20260904104700 | 73 | 110 | 0.0 | 0.0 | 0.00 | 0.00 | 0.00 | 95 | 1014.1 |
| 20260904104200 | 73 | 163 | 0.0 | 0.0 | 0.00 | 0.00 | 0.00 | 94 | 1014.1 |
| 20260904103700 | 73 | 164 | 0.0 | 0.0 | 0.00 | 0.00 | 0.00 | 95 | 1014.1 |
| 20260904103201 | 73 | 330 | 0.0 | 1.0 | 0.00 | 0.00 | 0.00 | 95 | 1014.1 |
| 20260904102700 | 73 | 85 | 1.0 | 1.0 | 0.00 | 0.00 | 0.00 | 95 | 1014.1 |
| 20260904102200 | 73 | 113 | 2.0 | 3.0 | 0.00 | 0.00 | 0.00 | 95 | 1014.1 |
| 20260904101700 | 73 | 107 | 1.0 | 2.0 | 0.00 | 0.00 | 0.00 | 95 | 1014.2 |
| 20260904101201 | 73 | 92 | 2.0 | 3.0 | 0.00 | 0.00 | 0.00 | 95 | 1014.2 |
| 20260904100702 | 73 | 92 | 2.0 | 2.0 | 0.00 | 0.00 | 0.00 | 94 | 1014.1 |
| 20260904100200 | 73 | 115 | 1.0 | 1.0 | 0.00 | 0.00 | 0.00 | 94 | 1014.1 |
| 20260904095700 | 73 | 163 | 0.0 | 0.0 | 0.00 | 0.00 | 0.00 | 94 | 1014.1 |
| 20260904095201 | 73 | 166 | 0.0 | 0.0 | 0.00 | 0.00 | 0.00 | 94 | 1014.0 |
| 20260904094700 | 73 | 126 | 1.0 | 2.0 | 0.00 | 0.00 | 0.00 | 94 | 1014.0 |
| 20260904094159 | 73 | 103 | 2.0 | 2.0 | 0.00 | 0.00 | 0.00 | 94 | 1014.0 |
| 20260904093700 | 73 | 121 | 1.0 | 1.0 | 0.00 | 0.00 | 0.00 | 94 | 1013.9 |
| 20260904093200 | 73 | 137 | 1.0 | 1.0 | 0.00 | 0.00 | 0.00 | 94 | 1013.8 |
| 20260904092701 | 73 | 86 | 1.0 | 1.0 | 0.00 | 0.00 | 0.00 | 94 | 1013.8 |
| 20260904092159 | 73 | 114 | 1.0 | 1.0 | 0.00 | 0.00 | 0.00 | 94 | 1013.8 |
| 20260904091703 | 73 | 16 | 1.0 | 2.0 | 0.00 | 0.00 | 0.00 | 94 | 1013.8 |
| 20260904091200 | 73 | 353 | 1.0 | 2.0 | 0.00 | 0.00 | 0.00 | 94 | 1013.8 |
| 20260904090701 | 73 | 357 | 0.0 | 1.0 | 0.00 | 0.00 | 0.00 | 94 | 1013.7 |
| 20260904090200 | 73 | 360 | 0.0 | 0.0 | 0.00 | 0.00 | 0.00 | 94 | 1013.7 |
| 20260904085702 | 73 | 144 | 0.0 | 0.0 | 0.00 | 0.00 | 0.00 | 94 | 1013.7 |
| 20260904085200 | 73 | 118 | 1.0 | 3.0 | 0.00 | 0.00 | 0.00 | 94 | 1013.7 |
| 20260904084700 | 73 | 106 | 2.0 | 2.0 | 0.00 | 0.00 | 0.00 | 94 | 1013.7 |
| 20260904084201 | 73 | 118 | 2.0 | 2.0 | 0.00 | 0.00 | 0.00 | 94 | 1013.8 |
| 20260904083700 | 73 | 134 | 2.0 | 3.0 | 0.00 | 0.00 | 0.00 | 94 | 1013.7 |
| 20260904083200 | 73 | 354 | 1.0 | 3.0 | 0.00 | 0.00 | 0.00 | 94 | 1013.6 |
| 20260904082700 | 73 | 360 | 0.0 | 0.0 | 0.00 | 0.00 | 0.00 | 94 | 1013.5 |
| 20260904082201 | 72 | 324 | 1.0 | 1.0 | 0.00 | 0.00 | 0.00 | 94 | 1013.5 |
| 20260904081700 | 72 | 281 | 0.0 | 0.0 | 0.00 | 0.00 | 0.00 | 94 | 1013.5 |
| 20260904081201 | 73 | 360 | 0.0 | 0.0 | 0.00 | 0.00 | 0.00 | 94 | 1013.5 |
| 20260904080700 | 73 | 316 | 1.0 | 3.0 | 0.00 | 0.00 | 0.00 | 94 | 1013.5 |
| 20260904080200 | 73 | 360 | 0.0 | 0.0 | 0.00 | 0.00 | 0.00 | 94 | 1013.5 |
| 20260904075701 | 73 | 360 | 0.0 | 0.0 | 0.00 | 0.00 | 0.00 | 93 | 1013.6 |
| 20260904075200 | 73 | 130 | 1.0 | 2.0 | 0.00 | 0.00 | 0.00 | 93 | 1013.5 |
| 20260904074700 | 73 | 360 | 0.0 | 0.0 | 0.00 | 0.00 | 0.00 | 93 | 1013.5 |
| 20260904074200 | 73 | 360 | 0.0 | 0.0 | 0.00 | 0.00 | 0.00 | 93 | 1013.4 |
| 20260904073700 | 73 | 360 | 0.0 | 0.0 | 0.00 | 0.00 | 0.00 | 93 | 1013.4 |
| 20260904073200 | 73 | 360 | 0.0 | 0.0 | 0.00 | 0.00 | 0.00 | 93 | 1013.5 |
| 20260904072701 | 73 | 18 | 0.0 | 0.0 | 0.00 | 0.00 | 0.00 | 93 | 1013.5 |
| 20260904072202 | 73 | 109 | 1.0 | 1.0 | 0.00 | 0.00 | 0.00 | 93 | 1013.6 |
| 20260904071700 | 73 | 360 | 0.0 | 0.0 | 0.00 | 0.00 | 0.00 | 93 | 1013.6 |
| 20260904071200 | 73 | 360 | 0.0 | 0.0 | 0.00 | 0.00 | 0.00 | 93 | 1013.6 |
| 20260904070700 | 73 | 360 | 0.0 | 0.0 | 0.00 | 0.00 | 0.00 | 93 | 1013.6 |
| 20260904070200 | 74 | 133 | 0.0 | 0.0 | 0.00 | 0.00 | 0.00 | 93 | 1013.7 |
| 20260904065700 | 74 | 122 | 0.0 | 1.0 | 0.00 | 0.00 | 0.00 | 93 | 1013.8 |
| 20260904065200 | 74 | 360 | 0.0 | 0.0 | 0.00 | 0.00 | 0.00 | 93 | 1013.8 |
| 20260904064700 | 74 | 137 | 1.0 | 2.0 | 0.00 | 0.00 | 0.00 | 93 | 1013.8 |
| 20260904064201 | 74 | 360 | 0.0 | 0.0 | 0.00 | 0.00 | 0.00 | 92 | 1013.8 |
| 20260904063700 | 74 | 360 | 0.0 | 0.0 | 0.00 | 0.00 | 0.00 | 92 | 1013.7 |
| 20260904063200 | 74 | 360 | 0.0 | 0.0 | 0.00 | 0.00 | 0.00 | 92 | 1013.7 |
| 20260904062700 | 74 | 360 | 0.0 | 0.0 | 0.00 | 0.00 | 0.00 | 92 | 1013.7 |
| 20260904062200 | 74 | 158 | 1.0 | 1.0 | 0.00 | 0.00 | 0.00 | 92 | 1013.7 |
| 20260904061700 | 74 | 130 | 0.0 | 1.0 | 0.00 | 0.00 | 0.00 | 92 | 1013.6 |
| 20260904061200 | 74 | 107 | 2.0 | 2.0 | 0.00 | 0.00 | 0.00 | 92 | 1013.6 |
| 20260904060701 | 74 | 98 | 0.0 | 1.0 | 0.00 | 0.00 | 0.00 | 92 | 1013.6 |
| 20260904060200 | 75 | 160 | 1.0 | 1.0 | 0.00 | 0.00 | 0.00 | 92 | 1013.5 |
| 20260904055700 | 75 | 360 | 0.0 | 0.0 | 0.00 | 0.00 | 0.00 | 92 | 1013.5 |
| 20260904055200 | 75 | 75 | 0.0 | 1.0 | 0.00 | 0.00 | 0.00 | 91 | 1013.4 |
| 20260904054700 | 75 | 360 | 0.0 | 0.0 | 0.00 | 0.00 | 0.00 | 91 | 1013.4 |
| 20260904054200 | 75 | 173 | 0.0 | 1.0 | 0.00 | 0.00 | 0.00 | 91 | 1013.3 |
| 20260904053700 | 75 | 161 | 0.0 | 1.0 | 0.00 | 0.00 | 0.00 | 91 | 1013.3 |
| 20260904053200 | 75 | 360 | 0.0 | 0.0 | 0.00 | 0.00 | 0.00 | 91 | 1013.4 |
| 20260904052701 | 75 | 88 | 0.0 | 0.0 | 0.00 | 0.00 | 0.00 | 91 | 1013.4 |
| 20260904052200 | 75 | 128 | 2.0 | 2.0 | 0.00 | 0.00 | 0.00 | 91 | 1013.4 |
| 20260904051700 | 75 | 11 | 1.0 | 1.0 | 0.00 | 0.00 | 0.00 | 91 | 1013.3 |
| 20260904051200 | 75 | 360 | 0.0 | 0.0 | 0.00 | 0.00 | 0.00 | 91 | 1013.2 |
| 20260904050701 | 76 | 360 | 0.0 | 0.0 | 0.00 | 0.00 | 0.00 | 90 | 1013.2 |
| 20260904050200 | 76 | 360 | 0.0 | 0.0 | 0.00 | 0.00 | 0.00 | 90 | 1013.2 |
| 20260904045700 | 76 | 360 | 0.0 | 0.0 | 0.00 | 0.00 | 0.00 | 90 | 1013.2 |
| 20260904045201 | 76 | 360 | 0.0 | 0.0 | 0.00 | 0.00 | 0.00 | 90 | 1013.1 |
| 20260904044700 | 76 | 360 | 0.0 | 0.0 | 0.00 | 0.00 | 0.00 | 90 | 1013.0 |
| 20260904044200 | 76 | 360 | 0.0 | 0.0 | 0.00 | 0.00 | 0.00 | 90 | 1013.0 |
| 20260904043701 | 76 | 118 | 0.0 | 1.0 | 0.00 | 0.00 | 0.00 | 90 | 1013.0 |
| 20260904043200 | 76 | 360 | 0.0 | 0.0 | 0.00 | 0.00 | 0.00 | 89 | 1013.1 |
| 20260904042700 | 76 | 360 | 0.0 | 0.0 | 0.00 | 0.00 | 0.00 | 89 | 1013.1 |
| 20260904042200 | 76 | 360 | 0.0 | 0.0 | 0.00 | 0.00 | 0.00 | 89 | 1013.1 |
| 20260904041700 | 76 | 95 | 0.0 | 1.0 | 0.00 | 0.00 | 0.00 | 89 | 1013.1 |
| 20260904041200 | 76 | 111 | 0.0 | 1.0 | 0.00 | 0.00 | 0.00 | 89 | 1013.1 |
| 20260904040700 | 76 | 91 | 0.0 | 0.0 | 0.00 | 0.00 | 0.00 | 89 | 1013.1 |
| 20260904040200 | 76 | 360 | 0.0 | 0.0 | 0.00 | 0.00 | 0.00 | 89 | 1013.1 |
| 20260904035700 | 76 | 360 | 0.0 | 0.0 | 0.00 | 0.00 | 0.00 | 89 | 1013.2 |
| 20260904035200 | 76 | 360 | 0.0 | 0.0 | 0.00 | 0.00 | 0.00 | 89 | 1013.3 |
| 20260904034700 | 76 | 325 | 0.0 | 0.0 | 0.00 | 0.00 | 0.00 | 89 | 1013.3 |
| 20260904034201 | 76 | 360 | 0.0 | 0.0 | 0.00 | 0.00 | 0.00 | 89 | 1013.2 |
| 20260904033701 | 76 | 360 | 0.0 | 0.0 | 0.00 | 0.00 | 0.00 | 89 | 1013.2 |
| 20260904033200 | 76 | 360 | 0.0 | 0.0 | 0.00 | 0.00 | 0.00 | 89 | 1013.3 |
| 20260904032700 | 77 | 255 | 1.0 | 2.0 | 0.00 | 0.00 | 0.00 | 88 | 1013.4 |
| 20260904032201 | 77 | 360 | 0.0 | 0.0 | 0.00 | 0.00 | 0.00 | 88 | 1013.4 |
| 20260904031700 | 77 | 360 | 0.0 | 0.0 | 0.00 | 0.00 | 0.00 | 88 | 1013.4 |
| 20260904031200 | 77 | 360 | 0.0 | 0.0 | 0.00 | 0.00 | 0.00 | 87 | 1013.5 |
| 20260904030704 | 78 | 299 | 1.0 | 2.0 | 0.00 | 0.00 | 0.00 | 87 | 1013.5 |
| 20260904030202 | 78 | 291 | 0.0 | 1.0 | 0.00 | 0.00 | 0.00 | 86 | 1013.5 |
| 20260904025700 | 78 | 360 | 0.0 | 0.0 | 0.00 | 0.00 | 0.00 | 86 | 1013.5 |
| 20260904025201 | 79 | 303 | 0.0 | 1.0 | 0.00 | 0.00 | 0.00 | 85 | 1013.5 |
| 20260904024700 | 79 | 360 | 0.0 | 0.0 | 0.00 | 0.00 | 0.00 | 84 | 1013.5 |
| 20260904024200 | 79 | 360 | 0.0 | 0.0 | 0.00 | 0.00 | 0.00 | 82 | 1013.5 |
| 20260904023700 | 80 | 360 | 0.0 | 0.0 | 0.00 | 0.00 | 0.00 | 82 | 1013.5 |
| 20260904023204 | 80 | 329 | 0.0 | 1.0 | 0.00 | 0.00 | 0.00 | 81 | 1013.5 |
| 20260904022700 | 80 | 60 | 0.0 | 1.0 | 0.00 | 0.00 | 0.00 | 81 | 1013.5 |
| 20260904022200 | 80 | 71 | 0.0 | 1.0 | 0.00 | 0.00 | 0.00 | 81 | 1013.5 |
| 20260904021701 | 81 | 360 | 0.0 | 0.0 | 0.00 | 0.00 | 0.00 | 81 | 1013.6 |
| 20260904021200 | 81 | 360 | 0.0 | 0.0 | 0.00 | 0.00 | 0.00 | 80 | 1013.5 |
| 20260904020701 | 81 | 16 | 0.0 | 1.0 | 0.00 | 0.00 | 0.00 | 79 | 1013.4 |
| 20260904020200 | 81 | 360 | 0.0 | 0.0 | 0.00 | 0.00 | 0.00 | 79 | 1013.4 |
| 20260904015700 | 81 | 68 | 0.0 | 0.0 | 0.00 | 0.00 | 0.00 | 79 | 1013.3 |
| 20260904015201 | 81 | 360 | 0.0 | 0.0 | 0.00 | 0.00 | 0.00 | 78 | 1013.2 |
| 20260904014700 | 82 | 273 | 0.0 | 1.0 | 0.00 | 0.00 | 0.00 | 78 | 1013.2 |
| 20260904014201 | 82 | 113 | 0.0 | 1.0 | 0.00 | 0.00 | 0.00 | 77 | 1013.2 |
| 20260904013700 | 82 | 70 | 0.0 | 1.0 | 0.00 | 0.00 | 0.00 | 77 | 1013.1 |
| 20260904013200 | 82 | 360 | 0.0 | 0.0 | 0.00 | 0.00 | 0.00 | 78 | 1013.1 |
| 20260904012702 | 82 | 62 | 0.0 | 2.0 | 0.00 | 0.00 | 0.00 | 77 | 1013.0 |
| 20260904012200 | 82 | 88 | 0.0 | 2.0 | 0.00 | 0.00 | 0.00 | 78 | 1013.0 |
| 20260904011700 | 83 | 360 | 0.0 | 0.0 | 0.00 | 0.00 | 0.00 | 77 | 1012.9 |
| 20260904011200 | 83 | 33 | 0.0 | 1.0 | 0.00 | 0.00 | 0.00 | 76 | 1012.9 |
| 20260904010700 | 83 | 360 | 0.0 | 0.0 | 0.00 | 0.00 | 0.00 | 74 | 1012.8 |